Weather History for Robstown, TX

Change the Weather History Date:

Tuesday, November 20, 2012

  Actual Average (KCRP) Record (KCRP)
Temperature  
Mean Temperature 69 °F 65 °F  
Max Temperature 80 °F 75 °F 89 °F (1996)
Min Temperature 58 °F 55 °F 29 °F (1969)
Degree Days  
Heating Degree Days 0 4  
Month to date heating degree days 43  
Since 1 July heating degree days 53  
Cooling Degree Days 4 3  
Month to date cooling degree days 96  
Year to date cooling degree days 3447  
Growing Degree Days 19 (Base 50)    
Moisture  
Dew Point 59 °F    
Average Humidity 68    
Maximum Humidity 90    
Minimum Humidity 46    
Precipitation  
Precipitation 0.00 in 0.06 in 2.45 in (2009)
Month to date precipitation 1.47  
Year to date precipitation 29.43  
Sea Level Pressure  
Sea Level Pressure 30.18 in    
Wind  
Wind Speed 3 mph (SE)    
Max Wind Speed 10 mph    
Max Gust Speed -    
Visibility 10 miles    
Events      
T = Trace of Precipitation, MM = Missing Value Source: NWS Daily Summary

Daily Weather History Graph

Daily Weather History Graph

Search for Another Location

Airport:

Trip Planner

Search our weather history database for the weather conditions in past years. The results will help you decide how hot, cold, wet, or windy it might be!

Date:

Astronomy

Nov. 20, 2012 Rise Set
Actual Time 6:56 AM CST 5:36 PM CST
Civil Twilight 6:31 AM CST 6:01 PM CST
Nautical Twilight 6:02 AM CST 6:30 PM CST
Astronomical Twilight 5:34 AM CST 6:58 PM CST
Moon 12:49 PM CST (11/20) No Moon Set
Length of Visible Light 11h 30m
Length of Day
10h 40m
First Quarter, 51% of the Moon is Illuminated
Nov 20
First Quarter
Nov 28
Full
Dec 6
Last Quarter
Dec 13
New
Dec 19
First Quarter

Hourly Weather History & Observations

Time (CST) Temp. Heat Index Dew Point Humidity Pressure Visibility Wind Dir Wind Speed Gust Speed Precip Events Conditions
12:15 AM 63.7 °F - 56.3 °F 77% 30.17 in 10.0 mi Calm Calm - N/A   Clear
12:35 AM 63.5 °F - 57.2 °F 80% 30.16 in 10.0 mi Calm Calm - N/A   Clear
12:55 AM 63.5 °F - 57.4 °F 80% 30.16 in 10.0 mi Calm Calm - N/A   Clear
1:15 AM 62.8 °F - 58.1 °F 85% 30.15 in 10.0 mi Calm Calm - N/A   Clear
1:35 AM 63.5 °F - 59.0 °F 85% 30.15 in 10.0 mi Calm Calm - N/A   Clear
1:55 AM 63.1 °F - 59.0 °F 86% 30.15 in 10.0 mi Calm Calm - N/A   Clear
2:15 AM 61.7 °F - 55.4 °F 80% 30.16 in 10.0 mi Calm Calm - N/A   Clear
2:35 AM 60.3 °F - 53.6 °F 79% 30.16 in 10.0 mi NW 3.5 mph - N/A   Clear
6:15 AM 58.5 °F - 55.4 °F 90% 30.17 in 7.0 mi North 3.5 mph - N/A   Clear
6:35 AM 58.1 °F - 54.9 °F 89% 30.18 in 7.0 mi North 3.5 mph - N/A   Clear
6:55 AM 58.1 °F - 54.7 °F 88% 30.18 in 7.0 mi North 3.5 mph - N/A   Clear
7:15 AM 58.3 °F - 54.7 °F 88% 30.19 in 7.0 mi Calm Calm - N/A   Clear
7:35 AM 60.3 °F - 56.3 °F 87% 30.20 in 7.0 mi NNE 3.5 mph - N/A   Clear
7:55 AM 63.1 °F - 59.4 °F 87% 30.20 in 7.0 mi Calm Calm - N/A   Clear
8:15 AM 64.9 °F - 60.4 °F 85% 30.21 in 7.0 mi Calm Calm - N/A   Clear
8:35 AM 66.4 °F - 61.2 °F 83% 30.22 in 7.0 mi Calm Calm - N/A   Clear
8:55 AM 68.2 °F - 61.7 °F 80% 30.22 in 10.0 mi Calm Calm - N/A   Clear
9:15 AM 70.3 °F - 61.9 °F 74% 30.22 in 10.0 mi Calm Calm - N/A   Clear
9:35 AM 72.0 °F - 61.7 °F 70% 30.22 in 10.0 mi Calm Calm - N/A   Clear
9:55 AM 74.3 °F - 61.0 °F 63% 30.22 in 10.0 mi Calm Calm - N/A   Clear
10:15 AM 74.3 °F - 60.4 °F 62% 30.22 in 10.0 mi Calm Calm - N/A   Clear
10:35 AM 75.0 °F - 59.9 °F 59% 30.22 in 10.0 mi Calm Calm - N/A   Clear
10:55 AM 76.8 °F - 58.1 °F 52% 30.22 in 10.0 mi Calm Calm - N/A   Scattered Clouds
11:15 AM 77.4 °F - 57.9 °F 51% 30.22 in 10.0 mi South 4.6 mph - N/A   Overcast
11:35 AM 77.0 °F - 58.1 °F 52% 30.20 in 10.0 mi Calm Calm - N/A   Overcast
11:55 AM 77.5 °F - 58.3 °F 51% 30.19 in 10.0 mi SSW 3.5 mph - N/A   Mostly Cloudy
12:15 PM 78.4 °F - 57.2 °F 48% 30.18 in 10.0 mi SE 3.5 mph - N/A   Scattered Clouds
12:35 PM 79.2 °F - 56.8 °F 46% 30.18 in 10.0 mi ESE 4.6 mph - N/A   Mostly Cloudy
12:55 PM 78.6 °F - 57.2 °F 48% 30.17 in 10.0 mi Calm Calm - N/A   Overcast
1:15 PM 79.2 °F - 57.4 °F 47% 30.15 in 10.0 mi ESE 3.5 mph - N/A   Overcast
1:35 PM 79.2 °F - 57.4 °F 47% 30.14 in 10.0 mi Calm Calm - N/A   Overcast
1:55 PM 79.3 °F - 57.4 °F 47% 30.14 in 10.0 mi East 3.5 mph - N/A   Overcast
2:15 PM 79.5 °F - 57.2 °F 46% 30.14 in 10.0 mi Calm Calm - N/A   Overcast
2:35 PM 79.3 °F - 57.4 °F 47% 30.14 in 10.0 mi Calm Calm - N/A   Overcast
2:55 PM 79.7 °F - 57.4 °F 46% 30.13 in 10.0 mi South 3.5 mph - N/A   Overcast
3:15 PM 79.9 °F - 57.7 °F 47% 30.13 in 10.0 mi ESE 4.6 mph - N/A   Mostly Cloudy
3:35 PM 80.6 °F 81.2 °F 59.5 °F 49% 30.12 in 10.0 mi East 8.1 mph - N/A   Mostly Cloudy
3:55 PM 79.5 °F - 59.9 °F 51% 30.12 in 10.0 mi ESE 8.1 mph - N/A   Overcast
4:15 PM 79.0 °F - 60.3 °F 53% 30.13 in 10.0 mi SE 8.1 mph - N/A   Mostly Cloudy
4:35 PM 79.0 °F - 60.1 °F 52% 30.13 in 10.0 mi SE 9.2 mph - N/A   Clear
4:55 PM 78.3 °F - 60.1 °F 53% 30.13 in 10.0 mi ESE 10.4 mph - N/A   Clear
5:15 PM 77.9 °F - 59.7 °F 53% 30.14 in 10.0 mi SE 8.1 mph - N/A   Clear
5:35 PM 76.5 °F - 59.5 °F 56% 30.14 in 10.0 mi SE 9.2 mph - N/A   Clear
5:55 PM 75.2 °F - 59.4 °F 58% 30.15 in 10.0 mi SE 9.2 mph - N/A   Clear
6:15 PM 74.3 °F - 60.1 °F 61% 30.15 in 10.0 mi ESE 9.2 mph - N/A   Clear
6:35 PM 73.2 °F - 60.3 °F 64% 30.16 in 10.0 mi SE 8.1 mph - N/A   Clear
6:55 PM 72.1 °F - 60.3 °F 66% 30.17 in 10.0 mi SE 6.9 mph - N/A   Clear
7:15 PM 71.2 °F - 60.3 °F 68% 30.18 in 10.0 mi SE 6.9 mph - N/A   Clear
7:35 PM 70.7 °F - 60.3 °F 69% 30.18 in 10.0 mi SE 6.9 mph - N/A   Clear
7:55 PM 69.8 °F - 59.9 °F 71% 30.18 in 10.0 mi ESE 6.9 mph - N/A   Clear
8:15 PM 69.1 °F - 60.1 °F 73% 30.19 in 10.0 mi ESE 6.9 mph - N/A   Clear
8:35 PM 68.5 °F - 60.3 °F 75% 30.19 in 10.0 mi SE 8.1 mph - N/A   Clear
8:55 PM 68.0 °F - 60.1 °F 76% 30.20 in 10.0 mi SE 6.9 mph - N/A   Clear
9:15 PM 68.2 °F - 60.8 °F 77% 30.20 in 10.0 mi SSE 6.9 mph - N/A   Clear
9:35 PM 68.0 °F - 61.0 °F 78% 30.19 in 10.0 mi SE 6.9 mph - N/A   Clear
9:55 PM 68.0 °F - 61.5 °F 80% 30.20 in 10.0 mi SSE 6.9 mph - N/A   Clear
10:15 PM 67.3 °F - 61.0 °F 80% 30.20 in 10.0 mi SSE 5.8 mph - N/A   Clear
10:35 PM 66.7 °F - 60.8 °F 81% 30.20 in 10.0 mi SE 5.8 mph - N/A   Clear
10:55 PM 66.2 °F - 60.4 °F 82% 30.19 in 10.0 mi SE 5.8 mph - N/A   Clear
11:15 PM 66.2 °F - 60.8 °F 83% 30.19 in 10.0 mi SE 6.9 mph - N/A   Clear
11:35 PM 66.2 °F - 60.8 °F 83% 30.19 in 10.0 mi SE 4.6 mph - N/A   Clear
11:55 PM 65.5 °F - 60.4 °F 84% 30.18 in 10.0 mi South 3.5 mph - N/A   Clear